This demonstration page uses our WeatherBlox Daily Observations layout. Learn more.

Left ArrowRight Arrow

Hourly Observations for May 14, 2021

Temp ( °F °C ) Dew Point ( °F °C ) Humidity (%) Winds ( mph kmh ) Pressure ( in mb ) Visibility ( mi km ) Precip ( " mm )
12:53 am 00:53 Clear 43 6.1 41 5 93 93 N N/A 30.33 1027 10 16.0934 N/A
1:53 am 01:53 Clear 42 5.6 40 4.4 92 92 N N/A 30.33 1027 10 16.0934 N/A
2:53 am 02:53 Clear 41 5 39 3.9 93 93 N N/A 30.32 1027 10 16.0934 N/A
3:53 am 03:53 Clear 40 4.4 38 3.3 93 93 N N/A 30.33 1027 10 16.0934 N/A
4:53 am 04:53 Clear 39 3.9 38 3.3 96 96 N N/A 30.33 1027 10 16.0934 N/A
5:53 am 05:53 Clear 38 3.3 37 2.8 97 97 N N/A 30.34 1028 10 16.0934 N/A
6:53 am 06:53 Sunny with Mist and Fog 39 3.9 38 3.3 96 96 N N/A 30.35 1028 6 9.65604 N/A
7:53 am 07:53 Sunny 45 7.2 41 5 86 86 N N/A 30.37 1029 10 16.0934 N/A
8:53 am 08:53 Sunny 52 11.1 41 5 66 66 N N/A 30.38 1029 10 16.0934 N/A
9:53 am 09:53 Sunny 61 16.1 35 1.7 38 38 N N/A 30.37 1029 10 16.0934 N/A
10:53 am 10:53 Sunny 64 17.8 35 1.7 34 34 N N/A 30.37 1028 10 16.0934 N/A
11:53 am 11:53 Sunny 66 18.9 35 1.7 32 32 WNW 5 7 30.36 1028 10 16.0934 N/A
12:53 pm 12:53 Mostly Sunny 67 19.4 33 0.6 28 28 E 6 9 30.35 1028 10 16.0934 N/A
1:53 pm 13:53 Sunny 68 20 34 1.1 28 28 ENE 9 15 30.33 1027 10 16.0934 N/A
2:53 pm 14:53 Mostly Cloudy 69 20.6 32 undefined 25 25 VRB 3 6 30.32 1027 10 16.0934 N/A
3:53 pm 15:53 Sunny 70 21.1 30 -1.1 23 23 VRB 6 9 30.3 1026 10 16.0934 N/A
4:53 pm 16:53 Mostly Sunny 66 18.9 36 2.2 33 33 NW 3 6 30.28 1026 10 16.0934 N/A
5:53 pm 17:53 Sunny 68 20 27 -2.8 21 21 N N/A 30.27 1025 10 16.0934 N/A
6:53 pm 18:53 Sunny 69 20.6 33 0.6 26 26 N N/A 30.26 1025 10 16.0934 N/A
7:53 pm 19:53 Sunny 63 17.2 47 8.3 56 56 N N/A 30.26 1025 10 16.0934 N/A
8:53 pm 20:53 Clear 53 11.7 42 5.6 66 66 N N/A 30.26 1025 10 16.0934 N/A
9:53 pm 21:53 Clear 49 9.4 43 6.1 80 80 N N/A 30.27 1025 10 16.0934 N/A
10:53 pm 22:53 Clear 47 8.3 44 6.7 90 90 N N/A 30.28 1025 10 16.0934 N/A
11:53 pm 23:53 Clear 46 7.8 42 5.6 86 86 N N/A 30.27 1025 10 16.0934 N/A

Powered by AerisWeather